STARLINK-32220, 60370

Orbit data source: Space-Track

STARLINK-32220, 60370 is a payload satellite owned by SpaceX/Seattle (US) in LEO that was launched on Sun, 04 Aug 2024 UTC via an FALCON 9 launch vehicle from the Air Force Western Test Range (AFWTR). Payload-class satellites include a variety of spacecraft equipped with specific instruments for various scientific and technological missions. These include communications satellites like Starlink; space stations such as the ISS; scientific satellites like the Hubble; Earth observation satellites from companies like Planet Labs, Umbra, and HawkEye 360; GPS; miniature CubeSats for education and research; and military/defense satellites.

Loading next visibility...
Identifier
60370, 2024-138R
Orbit
LEO
Country
Flag of USUS
Related business
Manufacturer
SpaceX/Seattle
Mission
Operational Commercial Communications
Bus & Motor
STARLINK V2M, Unknown motor
Mass
730 kg wet, ~700 kg dry
Launch date (UTC)
2024-08-04 (1 year ago)
Launch vehicle
FALCON 9
Launch site
Air Force Western Test Range (AFWTR)
Object type
Payload
Rocket body
Debris
Shape & HBR
Box + 2 Pan, 17.7 m
Radar Cross Section
33.884 m², Large (>1 m²)

Expand to show TLE details & history
Last TLE update: 1 day ago

TLE from 1 day ago
0 STARLINK-32220
1 60370U 24138R   25353.20840455 -.00003007  00000-0 -89426-4 0  9995
2 60370  53.1626 323.5640 0001389 109.6565 250.4586 15.30197558 78309
Epoch: 2025-12-19T05:00Z
TLE epoch observation values (Epoch: 2025-12-19T05:00:06.153Z)
Latitude
0.00002°
Longitude
160.48552°
Altitude
476.441 km
Speed
7.629 km/s
True Right ascension
21h 34m 15s
True Declination
0° 00' 00"
Sunlit
Object was in daylight at epoch
Visualization orbit readout
Latitude
Unknown
Longitude
Unknown
Altitude
Unknown
Speed
Unknown
Apparent Right ascension
Unknown
Apparent Declination
Unknown
Sunlit
N/A
Visualization observer readout
Local Sidereal Time
07:59:06
Azimuth
Unknown
Elevation
Unknown
Doppler factor
Unknown
Orbital elements
Apogee altitude
476.43 km
Perigee altitude
474.526 km
Semi-major axis
6,853.615 km
Eccentricity
0.00014
Inclination
53.1626°
RAAN
323.564°
Arg. of periapsis
109.6565°
True anomaly
250.4436°
Mean anomaly
250.4586°
Eccentric anomaly
250.4511°
Mean motion
3.82528 °/min
Orbital period
94.11 mins
BSTAR
-0.000089426
Loading maneuver chart data...
Computing Atmospheric mass density...
Loading historical data...
Loading historical data...
Loading historical data...
Loading historical data...
Loading historical data...
Loading historical data...
Loading historical data...

Documentation

Showing up to 5 results
|